Tracking 19489 objects as of 22-Jan-2019
HD Live streaming from Space Station
objects crossing your sky now

ARABSAT 1A

Track ARABSAT 1A now!
ARABSAT 1A is classified as:


NORAD ID: 15560
Int'l Code: 1985-015A
Perigee: 35,709.5 km
Apogee: 35,782.8 km
Inclination: 14.7 °
Period: 1,433.7 minutes
Semi major axis: 42117 km
RCS: 3.1622 m2 (large)
Launch date: February 8, 1985
Source: Arab Satellite Communications Organization (AB)
Launch site: FRENCH GUIANA (FRGUI)
aabbcc
Your satellite tracking list
Your tracking list is empty




NASA's NSSDC Master Catalog

Two Line Element Set (TLE):
1 15560U 85015A   19022.53247368 -.00000245  00000-0  00000+0 0  9999
2 15560  14.6927 353.6160 0008698 312.9048 280.5095  1.00441694 98971
Source of the keplerian elements: AFSPC